GW3775 Weather Reports


Display with metric or nautical units.
time (UTC)temp
F
wind
direction
speed
MPH
gust
MPH
rain 1hr
in
rain 24hr
in
rain mn
in
humidity
%
barometer
mb
20260502213054 58 297 2.0 6.0 0.00 0.00 0.00 90 1019.7
20260502212549 58 144 2.0 6.0 0.00 0.00 0.00 90 1019.8
20260502212051 58 311 1.0 6.0 0.00 0.00 0.00 90 1019.9
20260502211553 58 7 3.0 6.0 0.00 0.00 0.00 90 1019.9
20260502211050 59 28 1.0 4.0 0.00 0.00 0.00 90 1019.9
20260502210549 59 232 1.0 4.0 0.00 0.00 0.00 90 1019.8
20260502210107 59 164 1.0 4.0 0.00 0.00 0.00 90 1019.8
20260502205549 59 301 1.0 6.0 0.00 0.00 0.00 90 1019.8
20260502205052 59 289 2.0 6.0 0.00 0.00 0.00 90 1019.7
20260502204557 59 294 2.0 8.0 0.00 0.00 0.00 90 1019.7
20260502204050 59 360 3.0 8.0 0.00 0.00 0.00 90 1019.7
20260502203549 59 285 3.0 8.0 0.00 0.00 0.00 90 1019.8
20260502203058 59 323 2.0 6.0 0.00 0.00 0.00 91 1019.8
20260502202549 59 305 3.0 9.0 0.00 0.00 0.00 91 1019.8
20260502202052 59 304 5.0 9.0 0.00 0.00 0.00 90 1019.6
20260502201553 59 303 3.0 9.0 0.00 0.00 0.00 91 1019.5
20260502201049 59 30 4.0 9.0 0.00 0.00 0.00 91 1019.6
20260502200549 59 307 4.0 9.0 0.00 0.00 0.00 91 1019.4
20260502200055 59 320 5.0 9.0 0.00 0.00 0.00 90 1019.5
20260502195548 59 296 4.0 10.0 0.00 0.00 0.00 90 1019.6
20260502195050 59 324 5.0 10.0 0.00 0.00 0.00 90 1019.2
20260502194602 59 308 4.0 7.0 0.00 0.00 0.00 90 1019.2
20260502194048 59 173 1.0 6.0 0.00 0.00 0.00 90 1019.3
20260502193549 60 297 2.0 8.0 0.00 0.00 0.00 90 1019.2
20260502193055 60 297 2.0 8.0 0.00 0.00 0.00 89 1019.1
20260502192553 60 17 2.0 6.0 0.00 0.00 0.00 89 1018.9
20260502192048 60 55 3.0 6.0 0.00 0.00 0.00 89 1019.2
20260502191606 60 218 1.0 4.0 0.00 0.00 0.00 89 1019.1
20260502191048 60 273 1.0 8.0 0.00 0.00 0.00 89 1019.3
20260502190548 60 5 2.0 8.0 0.00 0.00 0.00 88 1019.4
20260502190057 60 284 3.0 8.0 0.00 0.00 0.00 88 1019.3
20260502185549 60 12 1.0 4.0 0.00 0.00 0.00 87 1019.1
20260502185049 60 18 2.0 3.0 0.00 0.00 0.00 86 1019.2
20260502184600 60 0 2.0 5.0 0.00 0.00 0.00 86 1019.1
20260502184049 61 0 2.0 6.0 0.00 0.00 0.00 86 1018.9
20260502183549 61 353 3.0 6.0 0.00 0.00 0.00 85 1019.0
20260502183055 61 360 3.0 6.0 0.00 0.00 0.00 85 1019.3
20260502182549 61 180 1.0 4.0 0.00 0.00 0.00 84 1018.9
20260502182050 62 35 1.0 5.0 0.00 0.00 0.00 84 1019.2
20260502181554 62 182 1.0 5.0 0.00 0.00 0.00 84 1019.1
20260502181238 62 308 1.0 5.0 0.00 0.00 0.00 83 1019.1
20260502180549 62 38 1.0 5.0 0.00 0.00 0.00 83 1019.1
20260502164051 64 158 0.0 4.0 0.00 0.00 0.00 79 1019.6
20260502163549 64 58 1.0 4.0 0.00 0.00 0.00 78 1019.7
20260502163103 64 0 1.0 5.0 0.00 0.00 0.00 79 1019.6
20260502162553 63 0 1.0 6.0 0.00 0.00 0.00 81 1019.5
20260502162050 63 307 4.0 6.0 0.00 0.00 0.00 81 1019.8
20260502162007 64 0 2.0 6.0 0.00 0.00 0.00 82 1019.8
20260502160550 63 307 4.0 7.0 0.00 0.00 0.00 82 1019.7
20260502152051 65 349 0.0 6.0 0.00 0.00 0.00 77 1020.3
20260502151621 65 45 4.0 6.0 0.00 0.00 0.00 74 1020.4
20260502151049 65 95 1.0 5.0 0.00 0.00 0.00 75 1020.1
20260502150548 65 51 2.0 6.0 0.00 0.00 0.00 75 1020.5
20260502130548 65 98 0.0 4.0 0.00 0.00 0.00 75 1021.9
20260502123550 66 165 1.0 5.0 0.00 0.00 0.00 75 1022.0
20260502123059 66 240 2.0 8.0 0.00 0.00 0.00 75 1021.7
20260502122549 65 80 1.0 8.0 0.00 0.00 0.00 76 1021.8
20260502122048 65 34 2.0 8.0 0.00 0.00 0.00 75 1021.9
20260502121553 65 40 2.0 6.0 0.00 0.00 0.00 75 1022.0
20260502121047 65 292 1.0 6.0 0.00 0.00 0.00 75 1021.9
20260502120549 64 303 3.0 6.0 0.00 0.00 0.00 76 1022.1
20260502115551 65 318 2.0 4.0 0.00 0.00 0.00 72 1022.4
20260502115048 66 69 1.0 7.0 0.00 0.00 0.00 73 1022.4
20260502114556 65 329 0.0 7.0 0.00 0.00 0.00 73 1022.3
20260502114049 65 41 3.0 7.0 0.00 0.00 0.00 73 1022.2
20260502113549 66 301 1.0 6.0 0.00 0.00 0.00 73 1022.2
20260502113054 65 72 1.0 6.0 0.00 0.00 0.00 74 1022.2
20260502112552 66 306 2.0 5.0 0.00 0.00 0.00 74 1022.3
20260502112048 65 71 1.0 4.0 0.00 0.00 0.00 74 1022.3
20260502111559 65 14 1.0 5.0 0.00 0.00 0.00 76 1022.4
20260502111049 64 48 3.0 5.0 0.00 0.00 0.00 75 1022.5
20260502110548 65 275 1.0 4.0 0.00 0.00 0.00 75 1022.6
20260502110055 65 43 1.0 4.0 0.00 0.00 0.00 76 1022.7
20260502105549 64 28 1.0 5.0 0.00 0.00 0.00 76 1022.9
20260502105201 63 14 1.0 5.0 0.00 0.00 0.00 77 1022.8
20260502104551 63 7 2.0 5.0 0.00 0.00 0.00 77 1022.9
20260502104049 63 76 2.0 5.0 0.00 0.00 0.00 78 1022.8
20260502103549 63 350 1.0 7.0 0.00 0.00 0.00 79 1022.9
20260502103102 63 89 2.0 7.0 0.00 0.00 0.00 77 1023.1
20260502102549 63 24 1.0 6.0 0.00 0.00 0.00 77 1023.0
20260502102049 63 27 2.0 6.0 0.00 0.00 0.00 77 1023.0
20260502101600 63 23 2.0 5.0 0.00 0.00 0.00 77 1022.9
20260502101048 63 293 1.0 4.0 0.00 0.00 0.00 78 1022.9
20260502100549 63 0 2.0 4.0 0.00 0.00 0.00 79 1022.9
20260502100123 63 55 1.0 4.0 0.00 0.00 0.00 79 1023.1
20260502091051 62 70 2.0 6.0 0.00 0.02 0.00 80 1023.2
20260502090551 62 15 3.0 6.0 0.00 0.02 0.00 79 1023.2
20260502090110 62 355 2.0 4.0 0.00 0.02 0.00 79 1023.2
20260502071050 57 306 3.0 7.0 0.00 0.04 0.00 86 1023.5
20260502070552 57 302 3.0 7.0 0.00 0.04 0.00 87 1023.4
20260502070100 57 202 0.0 5.0 0.00 0.04 0.00 88 1023.6
20260502065552 57 251 1.0 5.0 0.00 0.04 0.00 88 1023.6
20260502065049 57 56 2.0 5.0 0.00 0.04 0.00 87 1023.7
20260502064606 57 305 1.0 4.0 0.00 0.04 0.00 88 1023.7
20260502064048 57 0 0.0 5.0 0.00 0.04 0.00 88 1023.8
20260502063548 57 10 2.0 5.0 0.00 0.04 0.00 88 1023.8
20260502063106 56 42 1.0 7.0 0.00 0.04 0.00 89 1023.7
20260502062550 56 169 2.0 7.0 0.00 0.04 0.00 89 1023.6
20260502062049 56 248 1.0 3.0 0.00 0.04 0.00 89 1023.5
20260502061612 56 133 1.0 5.0 0.00 0.04 0.00 89 1023.6
20260502061050 56 100 2.0 6.0 0.00 0.04 0.00 89 1023.2
20260502060552 56 69 1.0 6.0 0.00 0.04 0.00 89 1023.4
20260502060053 56 164 2.0 7.0 0.00 0.04 0.00 89 1023.3
20260502055550 56 292 2.0 8.0 0.00 0.04 0.00 90 1023.2
20260502055051 56 38 4.0 8.0 0.00 0.04 0.00 90 1023.2
20260502054555 56 353 4.0 8.0 0.00 0.04 0.00 90 1023.0
20260502054051 56 356 4.0 8.0 0.00 0.04 0.00 90 1023.0
20260502053548 56 23 3.0 6.0 0.00 0.04 0.00 90 1023.0
20260502053102 56 27 3.0 6.0 0.00 0.04 0.00 89 1022.9
20260502052551 56 31 2.0 6.0 0.00 0.04 0.00 89 1022.9
20260502052048 56 15 3.0 6.0 0.00 0.04 0.00 89 1023.0
20260502051550 56 10 4.0 6.0 0.00 0.04 0.00 89 1022.7
20260502051052 56 356 2.0 5.0 0.00 0.04 0.00 89 1022.8
20260502050552 56 0 2.0 4.0 0.00 0.04 0.00 88 1022.8
20260502050057 56 8 1.0 5.0 0.00 0.04 0.00 88 1023.0
20260502045551 56 50 2.0 5.0 0.00 0.07 0.00 87 1023.0
20260502045052 57 8 2.0 5.0 0.00 0.07 0.00 87 1022.9
20260502044556 57 34 2.0 5.0 0.00 0.07 0.00 86 1022.9
20260502044051 57 58 2.0 5.0 0.00 0.07 0.00 86 1022.7
20260502043551 56 9 1.0 6.0 0.00 0.07 0.00 86 1022.7
20260502043100 56 111 1.0 6.0 0.00 0.07 0.00 86 1022.6
20260502042548 57 341 1.0 6.0 0.00 0.07 0.00 86 1022.5
20260502042048 57 145 2.0 6.0 0.00 0.07 0.00 86 1022.5
20260502041559 57 27 2.0 5.0 0.00 0.07 0.00 86 1022.6
20260502041154 57 97 1.0 5.0 0.00 0.07 0.00 86 1022.7
20260502040057 57 43 2.0 8.0 0.00 0.07 0.00 85 1022.9
20260502035549 57 289 3.0 8.0 0.00 0.13 0.00 85 1022.7
20260502035049 57 306 2.0 7.0 0.00 0.13 0.00 86 1022.9
20260502034553 57 17 1.0 6.0 0.00 0.13 0.00 86 1023.0
20260502034049 57 83 2.0 6.0 0.00 0.13 0.00 86 1023.2
20260502033549 57 48 3.0 7.0 0.00 0.13 0.00 86 1023.0
20260502033054 57 357 3.0 8.0 0.00 0.13 0.00 86 1023.0
20260502032548 57 277 5.0 8.0 0.00 0.13 0.00 87 1023.2
20260502032048 57 292 4.0 8.0 0.00 0.13 0.00 87 1023.2
20260502031558 57 296 2.0 7.0 0.00 0.13 0.00 87 1023.2
20260502031049 57 290 3.0 7.0 0.00 0.13 0.00 88 1023.2
20260502030549 57 306 2.0 6.0 0.00 0.13 0.00 88 1023.3
20260502030059 56 339 3.0 6.0 0.00 0.13 0.00 89 1023.3
20260502025549 56 296 1.0 4.0 0.00 0.22 0.00 89 1023.5
20260502025048 56 330 1.0 5.0 0.00 0.22 0.00 89 1023.3
20260502024603 56 315 2.0 5.0 0.00 0.22 0.00 89 1023.5
20260502024052 57 25 1.0 5.0 0.00 0.22 0.00 89 1023.3
20260502023551 57 1 1.0 4.0 0.00 0.22 0.00 89 1023.4
20260502023053 57 0 2.0 6.0 0.00 0.22 0.00 89 1023.3
20260502022548 56 299 2.0 6.0 0.00 0.22 0.00 89 1023.2
20260502022051 56 315 2.0 7.0 0.00 0.22 0.00 90 1023.3
20260502021557 56 297 3.0 7.0 0.00 0.22 0.00 90 1023.2
20260502021051 56 298 3.0 7.0 0.00 0.22 0.00 90 1023.2
20260502020548 56 311 4.0 7.0 0.00 0.22 0.00 91 1023.5
20260502020053 56 327 3.0 6.0 0.00 0.22 0.00 91 1023.2
20260502015552 56 307 3.0 6.0 0.00 0.50 0.00 91 1023.5
20260502015049 56 301 3.0 6.0 0.00 0.50 0.00 91 1023.5
20260502014555 56 224 0.0 2.0 0.00 0.50 0.00 91 1023.5
20260502014052 56 0 0.0 5.0 0.00 0.50 0.00 91 1023.5
20260502013555 56 141 1.0 5.0 0.00 0.50 0.00 91 1023.6
20260502013053 56 35 1.0 4.0 0.00 0.50 0.00 91 1023.4
20260502012554 56 40 1.0 4.0 0.00 0.50 0.00 91 1023.5
20260502012049 56 37 1.0 3.0 0.00 0.50 0.00 91 1023.5
20260502011553 57 160 1.0 3.0 0.00 0.50 0.00 91 1023.7
20260502011048 57 98 0.0 4.0 0.00 0.50 0.00 91 1023.8
20260502010549 56 133 1.0 4.0 0.00 0.50 0.00 91 1023.9
20260502010108 57 303 2.0 4.0 0.00 0.50 0.00 91 1023.8
20260502005551 57 307 2.0 4.0 0.00 0.50 0.00 91 1024.1
20260502005049 57 294 2.0 5.0 0.00 0.50 0.00 91 1024.1
20260502004559 57 340 2.0 6.0 0.00 0.50 0.00 91 1024.2
20260502004049 57 284 3.0 7.0 0.00 0.50 0.00 90 1024.1
20260502003548 57 296 2.0 7.0 0.00 0.50 0.00 90 1024.2
20260502003053 57 298 2.0 7.0 0.00 0.50 0.00 90 1024.3
20260502002551 57 331 0.0 4.0 0.00 0.50 0.00 90 1024.4
20260502002051 57 34 0.0 4.0 0.00 0.50 0.00 90 1024.4
20260502001555 57 356 1.0 4.0 0.00 0.50 0.00 90 1024.5
20260502001051 57 44 1.0 4.0 0.00 0.50 0.00 90 1024.5
20260502000548 57 60 1.0 3.0 0.00 0.50 0.00 91 1024.6
20260502000056 57 97 0.0 3.0 0.00 0.50 0.00 91 1024.6
20260501235552 57 101 0.0 5.0 0.00 0.62 0.00 91 1024.6
20260501235048 57 80 1.0 5.0 0.00 0.62 0.00 91 1024.4
20260501234553 57 34 3.0 5.0 0.00 0.62 0.00 91 1024.7
20260501234049 57 17 2.0 5.0 0.00 0.62 0.00 91 1024.6
20260501233548 57 2 3.0 6.0 0.00 0.62 0.00 91 1024.7
20260501233057 57 28 2.0 6.0 0.00 0.62 0.00 91 1024.7
20260501232548 57 45 2.0 6.0 0.00 0.62 0.00 91 1024.7
20260501232048 57 0 3.0 6.0 0.00 0.62 0.00 91 1024.9
20260501231607 57 143 2.0 8.0 0.00 0.62 0.00 91 1024.9
20260501231048 57 80 2.0 8.0 0.00 0.62 0.00 91 1025.0
20260501230548 57 339 1.0 5.0 0.00 0.62 0.00 92 1024.9
20260501225554 57 34 3.0 6.0 0.00 0.84 0.00 92 1024.7
20260501225048 57 156 2.0 6.0 0.00 0.84 0.00 92 1024.8
20260501224555 57 53 2.0 6.0 0.00 0.84 0.00 92 1024.7
20260501224049 57 36 0.0 5.0 0.00 0.84 0.00 92 1024.7
20260501223550 57 349 2.0 5.0 0.00 0.84 0.00 92 1024.8
20260501223104 57 178 1.0 6.0 0.00 0.84 0.00 92 1024.5
20260501222549 57 148 3.0 6.0 0.00 0.84 0.00 92 1024.7
20260501222050 57 341 2.0 8.0 0.00 0.84 0.00 92 1024.6
20260501221552 57 292 2.0 9.0 0.00 0.84 0.00 92 1024.7
20260501221055 57 294 2.0 9.0 0.00 0.84 0.00 92 1024.9
20260501220552 57 309 3.0 6.0 0.00 0.84 0.00 92 1024.9
20260501220057 57 360 2.0 10.0 0.00 0.84 0.00 91 1024.7
20260501215549 57 116 3.0 10.0 0.00 0.84 0.84 91 1024.8
20260501215048 57 280 3.0 9.0 0.00 0.84 0.84 91 1024.9
20260501214602 57 100 2.0 6.0 0.00 0.84 0.84 91 1025.0
20260501214049 57 0 2.0 8.0 0.00 0.84 0.84 91 1024.8
20260501213548 57 25 2.0 8.0 0.00 0.84 0.84 91 1024.9